Weather History for St. Augustine, FL

Change the Weather History Date:

Saturday, January 7, 2012

  Actual Average Record
Temperature  
Mean Temperature 60 °F -  
Max Temperature 71 °F 62 °F 81 °F (1982)
Min Temperature 48 °F 44 °F 26 °F (2014)
Degree Days  
Heating Degree Days 6    
Growing Degree Days 10 (Base 50)    
Moisture  
Dew Point 52 °F    
Average Humidity 92    
Maximum Humidity 100    
Minimum Humidity 55    
Precipitation  
Precipitation 0.00 in - - ()
Sea Level Pressure  
Sea Level Pressure 30.17 in    
Wind  
Wind Speed 4 mph (SW)    
Max Wind Speed 7 mph    
Max Gust Speed -    
Visibility 5 miles    
Events Fog , Rain    
Averages and records for this station are not official NWS values.
T = Trace of Precipitation, MM = Missing Value Source: NWS Daily Summary

Daily Weather History Graph

Daily Weather History Graph

Search for Another Location

Airport:

Trip Planner

Search our weather history database for the weather conditions in past years. The results will help you decide how hot, cold, wet, or windy it might be!

Date:

Astronomy

Jan. 07, 2012 Rise Set
Actual Time 7:22 AM EST 5:41 PM EST
Civil Twilight 6:56 AM EST 6:07 PM EST
Nautical Twilight 6:26 AM EST 6:36 PM EST
Astronomical Twilight 5:57 AM EST 7:05 PM EST
Moon 4:25 PM EST (1/7) 5:50 AM EST (1/7)
Length of Visible Light 11h 11m
Length of Day
10h 18m
Waxing Gibbous, 97% of the Moon is Illuminated
Jan 7
Waxing Gibbous
Jan 9
Full
Jan 16
Last Quarter
Jan 23
New
Jan 30
First Quarter

Hourly Weather History & Observations

Time (EST) Temp. Dew Point Humidity Pressure Visibility Wind Dir Wind Speed Gust Speed Precip Events Conditions
12:58 AM 52.0 °F 48.9 °F 89% 30.14 in 10.0 mi WSW 6.9 mph - N/A   Clear
1:58 AM 52.0 °F 48.9 °F 89% 30.14 in 10.0 mi WSW 6.9 mph - N/A   Clear
2:58 AM 50.0 °F 48.9 °F 96% 30.14 in 6.0 mi SW 4.6 mph - N/A   Clear
3:58 AM 48.9 °F 48.0 °F 97% 30.13 in 3.0 mi SW 4.6 mph - N/A   Clear
4:14 AM 48.2 °F 48.2 °F 100% 30.13 in 3.0 mi SW 4.6 mph - N/A   Partly Cloudy
4:26 AM 48.2 °F 48.2 °F 100% 30.13 in 2.0 mi WSW 4.6 mph - N/A   Scattered Clouds
4:29 AM 48.2 °F 48.2 °F 100% 30.13 in 1.8 mi WSW 5.8 mph - N/A   Mostly Cloudy
4:39 AM 50.0 °F 48.2 °F 94% 30.13 in 0.5 mi SW 4.6 mph - 0.00 in Fog , Rain Light Rain
4:44 AM 50.0 °F 48.2 °F 94% 30.13 in 0.2 mi SW 4.6 mph - 0.00 in Fog , Rain Light Rain
4:58 AM 50.0 °F 50.0 °F 100% 30.14 in 0.2 mi SW 5.8 mph - 0.00 in Fog , Rain Light Rain
5:58 AM 51.1 °F 50.0 °F 96% 30.16 in 0.2 mi WSW 4.6 mph - 0.00 in Fog , Rain Light Rain
6:46 AM 51.8 °F 51.8 °F 100% 30.17 in 0.5 mi West 3.5 mph - 0.00 in Fog Fog
6:58 AM 51.1 °F 51.1 °F 100% 30.18 in 0.5 mi West 3.5 mph - 0.00 in Fog Fog
7:13 AM 51.8 °F 51.8 °F 100% 30.18 in 0.8 mi West 3.5 mph - 0.00 in Rain Light Rain
7:17 AM 51.8 °F 51.8 °F 100% 30.18 in 1.2 mi West 3.5 mph - 0.00 in Rain Light Rain
7:28 AM 51.8 °F 51.8 °F 100% 30.19 in 2.0 mi Calm Calm - 0.00 in   Overcast
7:35 AM 51.8 °F 51.8 °F 100% 30.19 in 2.5 mi Calm Calm - 0.00 in   Overcast
7:53 AM 51.8 °F 51.8 °F 100% 30.20 in 1.2 mi SW 3.5 mph - 0.00 in   Overcast
7:58 AM 51.1 °F 51.1 °F 100% 30.20 in 1.2 mi West 3.5 mph - 0.00 in   Overcast
8:58 AM 52.0 °F 52.0 °F 100% 30.21 in 1.2 mi Calm Calm - N/A   Overcast
9:53 AM 55.4 °F 55.4 °F 100% 30.23 in 2.0 mi SSW 3.5 mph - 0.00 in Rain Light Rain
9:58 AM 55.9 °F 55.0 °F 97% 30.23 in 2.0 mi Calm Calm - 0.00 in   Overcast
10:58 AM 61.0 °F 57.0 °F 87% 30.22 in 4.0 mi SW 3.5 mph - N/A   Mostly Cloudy
11:58 AM 64.9 °F 57.0 °F 75% 30.19 in 5.0 mi WSW 6.9 mph - N/A   Haze
12:58 PM 66.9 °F 57.9 °F 73% 30.16 in 10.0 mi Variable 4.6 mph - N/A   Mostly Cloudy
1:58 PM 70.0 °F 55.0 °F 59% 30.13 in 10.0 mi West 6.9 mph - N/A   Mostly Cloudy
3:58 PM 71.1 °F 54.0 °F 55% 30.13 in 10.0 mi WNW 6.9 mph - N/A   Mostly Cloudy
4:58 PM 66.9 °F 59.0 °F 76% 30.14 in 10.0 mi ESE 6.9 mph - N/A   Scattered Clouds
5:58 PM 63.0 °F 59.0 °F 87% 30.16 in 10.0 mi SSE 3.5 mph - N/A   Clear
6:58 PM 60.1 °F 55.9 °F 86% 30.16 in 10.0 mi ESE 3.5 mph - N/A   Clear
7:58 PM 57.9 °F 55.9 °F 93% 30.17 in 10.0 mi Calm Calm - N/A   Clear
8:58 PM 55.9 °F 54.0 °F 93% 30.19 in 10.0 mi Calm Calm - N/A   Clear
9:12 PM 55.4 °F 53.6 °F 94% 30.19 in 10.0 mi Calm Calm - N/A   Partly Cloudy
9:58 PM 55.0 °F 53.1 °F 93% 30.20 in 10.0 mi Calm Calm - N/A   Clear
10:58 PM 55.0 °F 53.1 °F 93% 30.20 in 10.0 mi SSW 3.5 mph - N/A   Clear
11:58 PM 57.0 °F 54.0 °F 89% 30.20 in 10.0 mi SSW 5.8 mph - N/A   Clear